Regional Weather Roundup
Issued by NWS

Home | Current Version | Previous Version | Graphics & Text | Print | Product List | Glossary On
Versions: 1 2 3 4 5 6 7 8 9 10 11 12 13 14 15 16 17 18 19 20 21 22 23 24 25 26 27 28 29 30 31 32 33 34 35 36 37 38 39 40 41 42 43 44 45 46 47 48 49 50
000
ASUS43 KOAX 222202
RWRNE

WEATHER ROUNDUP FOR NEBRASKA
NATIONAL WEATHER SERVICE OMAHA NE
400 PM CST WED NOV 22 2017

NOTES: SATELLITE DATA IS BEING USED TO AUGMENT CLOUD COVER ABOVE
       12000 FEET.
       "FAIR" INDICATES FEW OR NO CLOUDS BELOW 12,000 FEET WITH NO
       SIGNIFICANT WEATHER AND/OR OBSTRUCTIONS TO VISIBILITY.


NEZ001>004-019>022-054>056-222300-
NEBRASKA PANHANDLE

CITY           SKY/WX    TMP DP  RH WIND       PRES   REMARKS
SCOTTSBLUFF    CLOUDY    67  38  34 W17       30.11R
ALLIANCE       SUNNY     69  36  29 NW10      30.07F
CHADRON        SUNNY     69  38  32 NW9       30.05S
GORDON         FAIR      67  36  31 W8        30.03F
KIMBALL        SUNNY     65  37  35 NW18G25   30.18R
SIDNEY         SUNNY     68  36  30 N13       30.13S
$$

NEZ057>060-069>072-079>082-222300-
SOUTHWEST NEBRASKA

CITY           SKY/WX    TMP DP  RH WIND       PRES   REMARKS
NORTH PLATTE   SUNNY     68  38  33 W8        30.04F
IMPERIAL       SUNNY     70  36  28 N14       30.08S
LEXINGTON      SUNNY     61  33  35 SW9       30.06F
MCCOOK         SUNNY     67  38  34 W5        30.07S
OGALLALA       SUNNY     69  38  31 NW9       30.07S
$$

NEZ005>010-023>029-035>040-094-222300-
NORTH CENTRAL NEBRASKA

CITY           SKY/WX    TMP DP  RH WIND       PRES   REMARKS
VALENTINE      CLOUDY    68  37  32 NW12      29.99R
AINSWORTH      SUNNY     68  38  32 NW12      29.98R
BROKEN BOW     SUNNY     61  35  37 SW13      30.02F
O`NEILL        CLEAR     52  32  45 S8        29.99S
ORD            SUNNY     57  30  35 S10       30.02F
THEDFORD       SUNNY     70  38  31 NW10      30.03R
$$

NEZ041-046>049-061>064-073>077-083>087-222300-
SOUTH CENTRAL NEBRASKA

CITY           SKY/WX    TMP DP  RH WIND       PRES   REMARKS
GRAND ISLAND   SUNNY     51  25  36 SW18      30.08F
AURORA         SUNNY     50  21  32 S17       30.09R
HASTINGS       SUNNY     52  22  30 SW12      30.10S
HEBRON         SUNNY     48  18  30 SW13G18   30.14F
HOLDREGE       SUNNY     58  33  38 SW10      30.08S
YORK           CLEAR     46  19  34 SW16      30.11S
$$

NEZ011>018-030>034-042>045-222300-
NORTHEAST NEBRASKA

CITY           SKY/WX    TMP DP  RH WIND       PRES   REMARKS
NORFOLK        CLEAR     45  20  36 S13       30.04F
ALBION         CLEAR     51  25  36 S12       30.05S
BLAIR          CLEAR     41  17  38 S15       30.14R
COLUMBUS       CLEAR     43  18  36 S14       30.10F
FREMONT        CLOUDY    41  17  37 S9        30.13F
TEKAMAH        CLEAR     40  16  37 S18       30.13F WCI  31
WAYNE          CLEAR     44  14  29 SW20      30.05F
$$

NEZ050>053-065>068-078-088>093-222300-
SOUTHEAST NEBRASKA

CITY           SKY/WX    TMP DP  RH WIND       PRES   REMARKS
LINCOLN        CLEAR     43  17  35 S15       30.16F
OMAHA EPPLEY   MOCLDY    41  16  36 S16       30.16S
BEATRICE       CLEAR     43  18  36 SW15G21   30.15F
FALLS CITY     CLEAR     42  15  33 S12       30.20F
NEBRASKA CITY  CLEAR     41  18  38 S14       30.16F
PLATTSMOUTH    CLOUDY    41  17  38 S14       30.16S
$$

NEZ044-045-051>053-067-222300-
OMAHA AREA

CITY           SKY/WX    TMP DP  RH WIND       PRES   REMARKS
OMAHA EPPLEY   MOCLDY    41  16  36 S16       30.16S
BLAIR          CLEAR     41  17  38 S15       30.14R
FREMONT        CLOUDY    41  17  37 S9        30.13F
MILLARD        CLEAR     43  18  36 S10       30.16S
OFFUTT AFB     CLOUDY    41  15  35 S13       30.15F
PLATTSMOUTH    CLOUDY    41  17  38 S14       30.16S
WAHOO          FAIR      41  16  35 S13       30.14F
$$



USA.gov is the U.S. government's official web portal to all federal, state and local government web resources and services.